Regional Weather Roundup
Issued by NWS

Home | Current Version | Previous Version | Text Only | Print | Product List | Glossary Off
Versions: 1 2 3 4 5 6 7 8 9 10 11 12 13 14 15 16 17 18 19 20 21 22 23 24 25 26 27 28 29 30 31 32 33 34 35 36 37 38 39 40 41 42 43 44 45 46 47 48 49 50

000
ASUS43 KBIS 281210
RWRND

NORTH DAKOTA REGIONAL WEATHER ROUNDUP
NATIONAL WEATHER SERVICE BISMARCK ND
700 AM CDT FRI APR 28 2017

NOTE: "FAIR" INDICATES FEW OR NO CLOUDS BELOW 12,000 FEET WITH NO
SIGNIFICANT WEATHER AND/OR OBSTRUCTIONS TO VISIBILITY.


NDZ001>003-009>011-017-281300-
NORTHWEST NORTH DAKOTA

CITY           SKY/WX    TMP DP  RH WIND       PRES   REMARKS
WILLISTON      FAIR      27  21  78 N5        29.97R
6HR MIN TEMP:  25; 6HR MAX TEMP:  37;

MINOT          FAIR      25  21  85 SW6       29.97R WCI  18
MINOT AFB      CLEAR     19  17  92 NW6       29.96R WCI  11
$$

NDZ018>021-031>035-040>046-281300-
SOUTHWEST NORTH DAKOTA

CITY           SKY/WX    TMP DP  RH WIND       PRES   REMARKS
BISMARCK       FAIR      26  24  92 CALM      29.96R
6HR MIN TEMP:  22; 6HR MAX TEMP:  35;

DICKINSON      FAIR      25  19  78 E6        29.91R WCI  18
GARRISON         N/A     22  20  92 N8        29.96R WCI  12
6HR MIN TEMP:  21; 6HR MAX TEMP:  35;

HETTINGER ARPT CLOUDY    26  22  84 NE9       29.91R WCI  17
$$

NDZ004>008-012>016-024-026-027-054-281300-
NORTHEAST NORTH DAKOTA

CITY           SKY/WX    TMP DP  RH WIND       PRES   REMARKS
GRAND FORKS    CLEAR     31  28  89 NW8       29.92R
GRND FRKS AFB  CLEAR     31  25  78 NW6       29.93R
DEVILS LAKE    FAIR      27  22  81 NW7       29.94S WCI  19
$$

NDZ022-023-025-028>030-036>039-047>053-281300-
SOUTHEAST NORTH DAKOTA

CITY           SKY/WX    TMP DP  RH WIND       PRES   REMARKS
FARGO          CLEAR     27  25  92 NW6       29.92R
6HR MIN TEMP:  25; 6HR MAX TEMP:  33;

JAMESTOWN      FAIR      27  25  92 N6        29.92R
$$




USA.gov is the U.S. government's official web portal to all federal, state and local government web resources and services.